Regional Weather Roundup
Issued by NWS

Home | Current Version | Previous Version | Graphics & Text | Print | Product List | Glossary On
Versions: 1 2 3 4 5 6 7 8 9 10 11 12 13 14 15 16 17 18 19 20 21 22 23 24 25 26 27 28 29 30 31 32 33 34 35 36 37 38 39 40 41 42 43 44 45 46 47 48 49 50
000
ASUS43 KMKX 230500
RWRWI

WISCONSIN REGIONAL WEATHER ROUNDUP
NATIONAL WEATHER SERVICE MILWAUKEE/SULLIVAN WI
1200 AM CDT WED APR 23 2014

NOTE: "FAIR" INDICATES FEW OR NO CLOUDS BELOW 12,000 FEET WITH NO
SIGNIFICANT WEATHER AND/OR OBSTRUCTIONS TO VISIBILITY.

WIZ001-002-006>008-014>016-023>028-230600-
NORTHWEST WISCONSIN

CITY           SKY/WX    TMP DP  RH WIND       PRES   REMARKS
SUPERIOR ARPT  CLEAR     34  28  77 CALM      30.10S
ASHLAND        CLEAR     30  25  81 N5        30.12S WCI  25
HAYWARD        CLEAR     28  22  78 CALM      30.10S
SIREN          CLEAR     32  23  69 CALM      30.10R
RICE LAKE      CLEAR     34  30  86 CALM      30.12S
LADYSMITH      CLEAR     34  29  79 CALM      30.12S
EAU CLAIRE     NOT AVBL
MENOMONIE      CLEAR     40  30  67 CALM      30.11R
NEW RICHMOND   CLEAR     38  29  68 E3        30.10S
OSCEOLA        PTCLDY    36  28  71 E5        30.12S WCI  32
$$

WIZ003>005-009-010-017-018-230600-
NORTH CENTRAL WISCONSIN

CITY           SKY/WX    TMP DP  RH WIND       PRES   REMARKS
WOODRUFF       CLEAR     26  12  57 CALM      30.10R
RHINELANDER    CLEAR     26  22  84 CALM      30.10R
EAGLE RIVER    CLEAR     27  26  98 CALM      30.09S
LAND O LAKES   CLEAR     26  25  95 CALM      30.10S
PHILLIPS       CLEAR     29  24  84 CALM      30.10R
TOMAHAWK       CLEAR     27  23  87 CALM      30.11R
MEDFORD        CLEAR     32  27  80 CALM      30.10S
MERRILL        CLEAR     30  26  84 CALM      30.11R
$$

WIZ029-030-035-036-043>047-230600-
CENTRAL WISCONSIN

CITY           SKY/WX    TMP DP  RH WIND       PRES   REMARKS
WAUSAU         CLEAR     35  26  69 CALM      30.10R
MOSINEE        CLEAR     37  27  65 CALM      30.12R
MARSHFIELD     CLEAR     38  26  62 NE5       30.11R WCI  34
STEVENS POINT  CLEAR     31  25  78 CALM      30.12S
WAUPACA        CLEAR     39  27  60 CALM      30.12R
WAUTOMA        NOT AVBL
WISC RAPIDS    CLEAR     34  25  69 CALM      30.13R
CAMP DOUGLAS   NOT AVBL
$$

WIZ011>013-019>022-031-037>040-048>050-230600-
NORTHEAST WISCONSIN

CITY           SKY/WX    TMP DP  RH WIND       PRES   REMARKS
ANTIGO         CLEAR     33  27  78 N5        30.10R WCI  28
STURGEON BAY   CLEAR     32  25  74 MISG      30.10R
GREEN BAY      CLEAR     36  28  73 N5        30.12R WCI  32
MANITOWOC      NOT AVBL
APPLETON       CLEAR     37  28  70 NE6       30.11R WCI  33
CLINTONVILLE   CLEAR     37  28  70 CALM      30.11R
OSHKOSH        CLEAR     36  26  67 N5        30.10R WCI  32
$$

WIZ032>034-041-042-053>061-230600-
SOUTHWEST WISCONSIN

CITY           SKY/WX    TMP DP  RH WIND       PRES   REMARKS
LA CROSSE      CLEAR     41  26  55 CALM      30.11R
SPARTA         CLEAR     33  25  72 CALM      30.12R
VIROQUA        FAIR      39  28  63 E6        30.09S WCI  35
BOSCOBEL       CLEAR     38  28  67 NE3       30.11R
PRAIRIE DU CHI CLEAR     42  31  65 CALM      30.09R
PLATTEVILLE    FAIR      44  26  48 NE8       30.08S
$$

WIZ056-057-062-063-064-067-068-230600-
SOUTH CENTRAL WISCONSIN

CITY           SKY/WX    TMP DP  RH WIND       PRES   REMARKS
BARABOO/DELLS  CLEAR     40  26  57 NE7       30.10R
LONE ROCK      NOT AVBL
WATERTOWN      CLEAR     40  29  64 N6        30.09R
MADISON        CLEAR     41  27  57 NE7       30.12R
MIDDLETON      FAIR      39  27  62 NE6       30.10R WCI  35
MONROE         CLEAR     43  27  52 NE3       30.08R
JANESVILLE     CLEAR     39  32  75 CALM      30.09R
$$

WIZ051-052-058>065-066-070>072-230600-
SOUTHEAST WISCONSIN

CITY           SKY/WX    TMP DP  RH WIND       PRES   REMARKS
MILWAUKEE      PTCLDY    35  30  82 NE5       30.12R WCI  31
WAUKESHA       CLEAR     34  30  86 NE6       30.10R WCI  29
MILWAUKEE/TIMM CLEAR     36  28  75 NE6       30.11R WCI  31
RACINE         CLEAR     35  30  82 NE9       30.12R WCI  28
BURLINGTON     CLEAR     31  27  84 CALM      30.10R
KENOSHA        CLEAR     33  28  81 E8        30.10R WCI  26
FOND DU LAC    CLEAR     38  29  70 N3        30.11R
SHEBOYGAN      CLEAR     33  29  85 CALM      30.11R
WEST BEND      CLEAR     37  27  65 CALM      30.10R
JUNEAU         CLEAR     39  26  59 N6        30.11R WCI  35
$$

LSZ147-162-230600-
LAKE SUPERIOR

STATION/POSITION TIME  TEMP    WIND        PRES    WAVE
                       AIR SEA DIR/SP/G            HT/PER
                 (UTC) (F)     (DEG/KT/KT) (MB)    (FT/S)
DEVILS ISLAND    0400   36     140/ 10/ 11 1020.6R
PORT WING        0440   31     140/  2/  3 1019.6R
SAXON HARBOR     0400             CALM     1019.6R
$$

LMZ867-665-643>646-230600-
LAKE MICHIGAN

STATION/POSITION TIME  TEMP    WIND        PRES    WAVE
                       AIR SEA DIR/SP/G            HT/PER
                 (UTC) (F)     (DEG/KT/KT) (MB)    (FT/S)
NORTHPORT PIER   0400   32     310/  8/ 10 1019.0R
SISTER BAY       0409   32        CALM       N/A
KEWAUNEE LAKESHO 0400   36     340/  5/  7 1019.7R
SHEBOYGAN LAKESH 0400   37      50/ 10/ 11 1019.9R
PORT WASHINGTON  0440   38      50/  8/ 11 1020.3R
MILWAUKEE LAKESH 0400   37      40/ 11/ 13   N/A
KENOSHA   LAKESH 0400   40      30/ 15/ 17   N/A
$$

TC  - TEMPERATURE IN CELSIUS
VSB - VISIBILITY IN STATUTE MILES
WCI - WIND CHILL INDEX
HX  - HEAT INDEX




USA.gov is the U.S. government's official web portal to all federal, state and local government web resources and services.